Regional Weather Roundup
Issued by NWS Upton, NY

Current Version | Previous Version | Text Only | Print | Product List | Glossary On
Versions: 1 2 3 4 5 6 7 8 9 10 11 12 13 14 15 16 17 18 19 20 21 22 23 24 25 26 27 28 29 30 31 32 33 34 35 36 37 38 39 40 41 42 43 44 45 46 47 48 49 50
000
ASUS41 KOKX 211805
RWROKX

REGIONAL WEATHER ROUNDUP
NATIONAL WEATHER SERVICE NEW YORK NY
200 PM EDT TUE OCT 21 2014

NOTE: "FAIR" INDICATES FEW OR NO CLOUDS BELOW 12,000 FEET WITH NO
SIGNIFICANT WEATHER AND/OR OBSTRUCTIONS TO VISIBILITY.

NYZ071-072-176-178-NJZ106-104-211900-
NEW YORK CITY METRO AREA


CITY           SKY/WX    TMP DP  RH WIND       PRES   REMARKS
CENTRAL PARK   CLOUDY    65  49  56 VRB3      29.86F
LAGUARDIA APRT PTSUNNY   65  50  58 SE14      29.84F
KENNEDY INTL   LGT RAIN  62  55  77 SE9       29.86F
NEWARK/LIBERTY PTSUNNY   65  52  62 SE9       29.84F
BRNX BOT. GARD   N/A     64  48  55 S7        29.87R
TETERBORO      LGT RAIN  65  48  54 CALM      29.83F
$$

NYZ177-179-078>081-211900-
LONG ISLAND NEW YORK

CITY           SKY/WX    TMP DP  RH WIND       PRES   REMARKS
FARMINGDALE    CLOUDY    64  52  64 SE9       29.86F
ISLIP          PTSUNNY   66  51  58 SE9       29.84F
SHIRLEY        MOSUNNY   67  51  56 SE7       29.87F
WESTHAMPTON    MOSUNNY   66  53  63 SE8       29.88F
MONTAUK POINT    N/A     67  55  65 VRB3      29.89F
$$

NYZ052-065-067-211900-
HUDSON VALLEY

CITY           SKY/WX    TMP DP  RH WIND       PRES   REMARKS
WHITE PLAINS   PTSUNNY   63  50  62 E7        29.85F
NEWBURGH       LGT RAIN  54  52  94 NE7       29.89F FOG
MONTGOMERY     CLOUDY    53  49  86 NE6       29.87F
POUGHKEEPSIE   CLOUDY    53  50  89 N6        29.88F
ALBANY         PTSUNNY   54  49  83 CALM      29.91F
$$

NJZ001-105-106-008-010-013-015-019>022-104-211900-
NEW JERSEY

CITY           SKY/WX    TMP DP  RH WIND       PRES   REMARKS
NEWARK/LIBERTY PTSUNNY   65  52  62 SE9       29.84F
TETERBORO      LGT RAIN  65  48  54 CALM      29.83F
CALDWELL       CLOUDY    64  49  57 VRB3      29.84F
MORRISTOWN     PTSUNNY   64  50  59 N7        29.84F
SOMERVILLE     MOSUNNY   68  49  50 CALM      29.81F
SUSSEX         CLOUDY    58  50  75 NE10      29.86F
ANDOVER          N/A     61  49  64 VRB3      29.84F
TRENTON        SUNNY     67  49  52 CALM      29.81F
MILLVILLE      PTSUNNY   69  49  48 CALM      29.81F
ATLANTIC CITY  MOSUNNY   68  53  58 SW7       29.81F
WRIGHTSTOWN    PTSUNNY   67  51  57 W5        29.80F
TOMS RIVER     CLOUDY    63  55  77 CALM      29.82F
BELMAR         CLOUDY    61  52  72 N5        29.82F
$$

PAZ047>061-062-071-211900-
EASTERN PENNSYLVANIA

CITY           SKY/WX    TMP DP  RH WIND       PRES   REMARKS
PHILADELPHIA   MOSUNNY   68  46  45 W5        29.82F
ALLENTOWN      CLOUDY    64  48  56 CALM      29.83F
SCRANTON       CLOUDY    59  47  64 W5        29.83F
$$

CTZ002-004>006-009-010-012-RIZ004-006-007-MAZ004-011-015-211900-
SOUTHERN NEW ENGLAND
 IN CT

CITY           SKY/WX    TMP DP  RH WIND       PRES   REMARKS
BRADLEY INTL   PTSUNNY   61  47  59 N7        29.89F
HARTFORD       PTSUNNY   64  50  60 NW7       29.88F
DANBURY        CLOUDY    62  30  29 SE6       29.87F
WTRBRY/OXFORD  PTSUNNY   64  46  52 S12       29.87F
BRIDGEPORT     CLOUDY    65  55  70 E12       29.87F
MERIDEN        CLOUDY    68  49  50 VRB5      29.87F
NEW HAVEN      PTSUNNY   68  52  56 E9        29.87F
CHESTER        FAIR      66  46  48 SE7       29.89F
GROTON         PTSUNNY   64  53  67 SE6       29.88F
WILLIMANTIC    MOSUNNY   67  47  48 S6        29.88F

 IN RI

CITY           SKY/WX    TMP DP  RH WIND       PRES   REMARKS
PROVIDENCE     LGT RAIN  63  59  87 SE12      29.90F
BLOCK ISLAND   PTSUNNY   64  57  77 S6        29.89F
WESTERLY       MOSUNNY   66  51  58 S7        29.89F

 IN MA

CITY           SKY/WX    TMP DP  RH WIND       PRES   REMARKS
BOSTON         LGT RAIN  59  55  87 E10       29.92F
WORCESTER      CLOUDY    58  49  72 E8        29.91F
WESTFIELD      CLOUDY    60  47  61 N7        29.90F
PROVINCETOWN   CLOUDY    59  54  82 SE12G17   29.93S
NANTUCKET      CLOUDY    60  56  86 SE14      29.92S
$$

ANZ330-335-338-340-345-350-353-355-211900-
COASTAL MARINE OBSERVATIONS


STATION/POSITION TIME  SKY/WX   TEMP    WIND        PRES    VSBY  WAVE
                                AIR SEA DIR/SP/G                  HT/PER
                 (UTC)          (F)     (DEG/KT/KT) (MB)    (MI)  (FT/S)
NY HARB ENTRANCE NOT AVBL
4S FIRE IS       1800               64                N/A           3/ 6
20S FIRE ISLAND  1800            64 64  120/  8/ 10 1010.6          3/ 6
23SW MTP         1800                                 N/A           4/ 6
HUDSON CANYON    1800            63 67   50/  2/  8 1010.5          4/ 6
EXECUTION ROCKS  1800            65 63  140/ 10/ 14   N/A
WESTERN LI SOUND 1800            64     120/  8/ 10   N/A           1
CENTRAL LI SOUND 1700            63 64   90/  8/ 10   N/A           1
EASTERN LI SOUND 1700            63 64  130/  4/  6   N/A
ROBBINS REEF     1800            63     120/ 15/ 18 1009.3
$$


>>>>>>>>>>>>>>>>>>>>>>>>>>>> KEY <<<<<<<<<<<<<<<<<<<<<<<<<<<
>                                                          <
>     SKY/WX - SKY CONDITION/PRESENT WEATHER               <
>     TMP    - TEMPERATURE IN FAHRENHEIT                   <
>     DP     - DEWPOINT IN FAHRENHEIT                      <
>     RH     - RELATIVE HUMIDITY IN PERCENT                <
>     WIND   - DIRECTION AND SPEED IN MPH                  <
>     PRES   - MEAN SEA LEVEL PRESSURE IN INCHES OF HG     <
>     WCI    - WIND CHILL INDEX                            <
>     VSB    - VISIBILITY IN MILES                         <
>     HX     - HEAT INDEX                                  <
>     TC     - TEMPERATURE IN CELSIUS                      <
>     VRB    - VARIABLE WIND DIRECTION                     <
>                                                          <
>>>>>>>>>>>>>>>>>>>>>>>>>>>> KEY <<<<<<<<<<<<<<<<<<<<<<<<<<<





USA.gov is the U.S. government's official web portal to all federal, state and local government web resources and services.